Regional Weather Roundup
Issued by NWS

Home | Current Version | Previous Version | Text Only | Print | Product List | Glossary On
Versions: 1 2 3 4 5 6 7 8 9 10 11 12 13 14 15 16 17 18 19 20 21 22 23 24 25 26 27 28 29 30 31 32 33 34 35 36 37 38 39 40 41 42 43 44 45 46 47 48 49 50
000
ASUS45 KABQ 300310
RWRNM
NEW MEXICO REGIONAL WEATHER ROUNDUP
NATIONAL WEATHER SERVICE ALBUQUERQUE NM
900 PM MDT WED JUL 29 2015

NOTE: "FAIR" MEANS FEW OR NO CLOUDS BELOW 12,000 FEET AGL WITH NO
       SIGNIFICANT WEATHER OR OBSTRUCTIONS TO VISION.

      THIS PRODUCT IS RELEASED AS TWO VERSIONS.  ONE VERSION NEAR
      THE TOP OF THE HOUR CONTAINING PRELIMINARY DATA FROM ALBUQUERQUE
      AND OTHER STATIONS.  A FINAL VERSION WITH ADDITIONAL DATA IS
      ISSUED ABOUT 10 MINUTES AFTER THE HOUR.

NMZ501-503-504-510>518-300400-
NORTHWEST PLATEAU/NORTHCENTRAL MOUNTAINS

CITY           SKY/WX    TMP DP  RH WIND       PRES   REMARKS
FARMINGTON     CLEAR     74  43  32 E3        30.25R
LOS ALAMOS     RAIN      58  58 100 SW3       30.50R
SANTA FE       RAIN      61  58  90 N10       30.41R
TAOS           CLOUDY    61  46  59 SE9       30.46R
ANGEL FIRE     MOCLDY    54  52  92 NW3       30.56S

$$
NMZ402-403-502-505>509-300400-
WESTCENTRAL MOUNTAINS/SOUTHWEST MOUNTAINS

CITY           SKY/WX    TMP DP  RH WIND       PRES   REMARKS
GALLUP         CLOUDY    64  53  67 S9G16     30.37S
GRANTS         CLOUDY    59  57  93 N6        30.41S
SILVER CITY      N/A     68  63  83 NW16      30.27S

$$
NMZ407-409-411-412-300400-
SOUTHERN DESERTS

CITY           SKY/WX    TMP DP  RH WIND       PRES   REMARKS
LORDSBURG      MOCLDY    68  63  83 NW9       30.18F
DEMING         TSTM      67  65  93 NW12G21   30.21R
LAS CRUCES     CLOUDY    69  64  86 NW15      30.20F THUNDER
ALAMOGORDO     CLOUDY    72  63  73 NE6       30.19F
T OR C         LGT RAIN  73  63  70 NE9       30.23R

$$
NMZ519>523-300400-
CENTRAL VALLEYS/CENTRAL HIGHLANDS

CITY           SKY/WX    TMP DP  RH WIND       PRES   REMARKS
ALBUQUERQUE    CLOUDY    71  59  65 SE6       30.31R
DOUBLE EAGLE   MOCLDY    64  61  88 NW6       30.34R
MORIARTY ARPT  TSTM      63  58  85 N5        30.40R
CLINES CORNERS HVY RAIN  60  58  92 N10       30.43R FOG
BELEN          DRIZZLE   69  61  74 NE6       30.30R
SOCORRO        FAIR      73  56  55 CALM      30.27R

$$
NMZ524>526-539-540-300400-
SOUTHCENTRAL MOUNTAINS

CITY           SKY/WX    TMP DP  RH WIND       PRES   REMARKS
RUIDOSO          N/A    N/A N/A N/A MISG        N/A

$$
NMZ527>531-300400-
NORTHEAST HIGHLANDS/NORTHEAST PLAINS

CITY           SKY/WX    TMP DP  RH WIND       PRES   REMARKS
LAS VEGAS      RAIN      57  55  93 NE16      30.46F FOG
RATON          CLOUDY    59  55  87 N6        30.43R
CLAYTON        MOCLDY    69  59  70 S5        30.32R

$$
NMZ532>537-300400-
EASTCENTRAL PLAINS

CITY           SKY/WX    TMP DP  RH WIND       PRES   REMARKS
TUCUMCARI      PTCLDY    76  64  66 NE10      30.22R
CANNON AFB     CLOUDY    80  64  57 E9        30.21R
CLOVIS AIRPORT MOCLDY    77  64  65 E8        30.23R

$$
NMZ028-029-538-300400-
SOUTHEAST PLAINS

CITY           SKY/WX    TMP DP  RH WIND       PRES   REMARKS
ROSWELL        MOCLDY    83  62  49 E10       30.12R
ARTESIA        MOCLDY    88  59  37 E5        30.11R
CARLSBAD       MOCLDY    86  60  41 N3        30.06R
HOBBS          PTCLDY    82  57  42 SE26G32   30.14R


$$


USA.gov is the U.S. government's official web portal to all federal, state and local government web resources and services.